AAY1481 KVPS-KSHV

Flight info

Callsign AAY1481
Flight time 1h 16m
Altitude 36000
Route CEW J50 MCB
Aircraft A320/M-SDE3FGHIRWY/LB1

Departure

Time 2026-04-12 03:04
Airport Destin-Fort Walton Beach Airport (KVPS)

Arrival

Time 2026-04-12 04:21
Airport Shreveport Regional Airport (KSHV)
Time Latitude Longitude Altitude Speed Heading
2026-04-12 02:40 30.49387 -86.55126 86 ft 0 kts 272°
2026-04-12 02:53 30.49388 -86.55126 86 ft 0 kts 272°
2026-04-12 02:53 30.49387 -86.55116 86 ft 2 kts 272°
2026-04-12 02:53 30.49386 -86.55087 86 ft 2 kts 272°
2026-04-12 02:54 30.49390 -86.55071 86 ft 2 kts 228°
2026-04-12 02:54 30.49403 -86.55061 86 ft 2 kts 192°
2026-04-12 02:54 30.49410 -86.55061 86 ft 1 kts 175°
2026-04-12 02:54 30.49414 -86.55061 87 ft 0 kts 180°
2026-04-12 02:58 30.49413 -86.55061 86 ft 0 kts 180°
2026-04-12 02:59 30.49399 -86.55061 86 ft 3 kts 182°
2026-04-12 02:59 30.49359 -86.55062 86 ft 6 kts 169°
2026-04-12 02:59 30.49334 -86.55009 86 ft 8 kts 109°
2026-04-12 02:59 30.49297 -86.54976 86 ft 6 kts 181°
2026-04-12 03:00 30.49247 -86.54980 86 ft 7 kts 187°
2026-04-12 03:00 30.49191 -86.54997 86 ft 8 kts 201°
2026-04-12 03:00 30.49134 -86.55031 86 ft 9 kts 210°
2026-04-12 03:00 30.49070 -86.55074 86 ft 11 kts 210°
2026-04-12 03:01 30.49006 -86.55115 86 ft 2 kts 209°
2026-04-12 03:01 30.49005 -86.55115 86 ft 0 kts 209°
2026-04-12 03:02 30.48993 -86.55124 86 ft 4 kts 209°
2026-04-12 03:03 30.48948 -86.55154 86 ft 10 kts 210°
2026-04-12 03:03 30.48887 -86.55194 86 ft 8 kts 205°
2026-04-12 03:03 30.48845 -86.55152 86 ft 9 kts 118°
2026-04-12 03:03 30.48781 -86.55021 86 ft 44 kts 119°
2026-04-12 03:04 30.48497 -86.54447 83 ft 117 kts 119°
2026-04-12 03:04 30.48005 -86.53446 182 ft 161 kts 120°
2026-04-12 03:04 30.47422 -86.52289 660 ft 173 kts 120°
2026-04-12 03:04 30.46806 -86.51044 1302 ft 182 kts 120°
2026-04-12 03:05 30.46164 -86.49776 2006 ft 188 kts 120°
2026-04-12 03:05 30.45466 -86.48436 2631 ft 200 kts 120°
2026-04-12 03:05 30.44708 -86.47075 3332 ft 208 kts 121°
2026-04-12 03:05 30.43928 -86.45587 3869 ft 226 kts 108°
2026-04-12 03:06 30.43777 -86.43726 4426 ft 244 kts 78°
2026-04-12 03:06 30.44540 -86.41917 5125 ft 259 kts 49°
2026-04-12 03:06 30.46015 -86.40752 6016 ft 268 kts 22°
2026-04-12 03:06 30.47879 -86.40503 6921 ft 278 kts 354°
2026-04-12 03:07 30.49718 -86.41161 7803 ft 284 kts 339°
2026-04-12 03:07 30.51520 -86.42091 8672 ft 288 kts 332°
2026-04-12 03:07 30.53191 -86.43422 9534 ft 293 kts 324°
2026-04-12 03:07 30.54784 -86.44881 10384 ft 296 kts 323°
2026-04-12 03:08 30.56443 -86.46374 11045 ft 306 kts 324°
2026-04-12 03:08 30.58162 -86.47864 11762 ft 311 kts 325°
2026-04-12 03:08 30.59895 -86.49323 12518 ft 314 kts 325°
2026-04-12 03:08 30.61676 -86.50799 13267 ft 316 kts 326°
2026-04-12 03:09 30.63496 -86.52294 14004 ft 319 kts 326°
2026-04-12 03:09 30.65314 -86.53782 14698 ft 322 kts 326°
2026-04-12 03:09 30.67145 -86.55277 15366 ft 325 kts 326°
2026-04-12 03:09 30.69015 -86.56803 15936 ft 331 kts 326°
2026-04-12 03:10 30.70904 -86.58342 16461 ft 338 kts 326°
2026-04-12 03:10 30.72845 -86.59924 17049 ft 342 kts 326°
2026-04-12 03:10 30.74791 -86.61513 17633 ft 345 kts 326°
2026-04-12 03:10 30.76762 -86.63124 18231 ft 347 kts 325°
2026-04-12 03:11 30.78754 -86.64750 18857 ft 349 kts 325°
2026-04-12 03:11 30.80705 -86.66384 19435 ft 352 kts 320°
2026-04-12 03:11 30.82312 -86.68565 20019 ft 356 kts 300°
2026-04-12 03:11 30.83174 -86.71217 20621 ft 358 kts 282°
2026-04-12 03:12 30.83605 -86.74072 21208 ft 360 kts 280°
2026-04-12 03:12 30.84009 -86.76962 21767 ft 363 kts 280°
2026-04-12 03:12 30.84411 -86.79836 22323 ft 364 kts 280°
2026-04-12 03:12 30.84827 -86.82756 22871 ft 366 kts 281°
2026-04-12 03:13 30.85241 -86.85642 23416 ft 367 kts 281°
2026-04-12 03:13 30.85666 -86.88588 23942 ft 369 kts 281°
2026-04-12 03:13 30.86091 -86.91508 24437 ft 371 kts 281°
2026-04-12 03:13 30.86524 -86.94482 24940 ft 373 kts 281°
2026-04-12 03:14 30.86951 -86.97431 25444 ft 374 kts 281°
2026-04-12 03:14 30.87391 -87.00447 25936 ft 376 kts 281°
2026-04-12 03:14 30.87824 -87.03426 26397 ft 378 kts 281°
2026-04-12 03:14 30.88262 -87.06454 26836 ft 380 kts 281°
2026-04-12 03:15 30.88701 -87.09481 27272 ft 382 kts 281°
2026-04-12 03:15 30.89137 -87.12498 27713 ft 383 kts 281°
2026-04-12 03:15 30.89577 -87.15546 28147 ft 384 kts 281°
2026-04-12 03:15 30.90020 -87.18623 28573 ft 386 kts 281°
2026-04-12 03:16 30.90464 -87.21706 28969 ft 387 kts 281°
2026-04-12 03:16 30.90903 -87.24772 29349 ft 389 kts 282°
2026-04-12 03:16 30.91353 -87.27914 29729 ft 390 kts 282°
2026-04-12 03:16 30.91795 -87.31001 30076 ft 392 kts 282°
2026-04-12 03:17 30.92247 -87.34167 30411 ft 394 kts 282°
2026-04-12 03:17 30.92692 -87.37286 30734 ft 396 kts 282°
2026-04-12 03:17 30.93146 -87.40470 31059 ft 398 kts 282°
2026-04-12 03:17 30.93592 -87.43619 31360 ft 399 kts 282°
2026-04-12 03:18 30.94042 -87.46790 31671 ft 401 kts 282°
2026-04-12 03:18 30.94499 -87.50018 31956 ft 402 kts 283°
2026-04-12 03:18 30.94952 -87.53227 32229 ft 404 kts 283°
2026-04-12 03:18 30.95404 -87.56428 32514 ft 405 kts 283°
2026-04-12 03:19 30.95864 -87.59695 32789 ft 407 kts 283°
2026-04-12 03:19 30.96318 -87.62923 33042 ft 408 kts 283°
2026-04-12 03:19 30.96778 -87.66199 33312 ft 409 kts 283°
2026-04-12 03:19 30.97229 -87.69421 33595 ft 409 kts 283°
2026-04-12 03:20 30.97689 -87.72722 33825 ft 411 kts 283°
2026-04-12 03:20 30.98147 -87.75996 34073 ft 412 kts 283°
2026-04-12 03:20 30.98601 -87.79256 34394 ft 411 kts 283°
2026-04-12 03:20 30.99056 -87.82533 34762 ft 409 kts 283°
2026-04-12 03:21 30.99510 -87.85798 35073 ft 408 kts 283°
2026-04-12 03:21 30.99964 -87.89060 35317 ft 408 kts 283°
2026-04-12 03:21 31.00410 -87.92291 35520 ft 409 kts 283°
2026-04-12 03:21 31.00862 -87.95569 35772 ft 408 kts 283°
2026-04-12 03:22 31.01313 -87.98850 35990 ft 408 kts 283°
2026-04-12 03:22 31.01756 -88.02070 36196 ft 408 kts 283°
2026-04-12 03:22 31.02652 -88.08601 36247 ft 409 kts 283°
2026-04-12 03:23 31.03536 -88.15094 36248 ft 407 kts 283°
2026-04-12 03:23 31.04424 -88.21632 36248 ft 407 kts 283°
2026-04-12 03:24 31.05301 -88.28114 36252 ft 407 kts 283°
2026-04-12 03:24 31.06179 -88.34622 36250 ft 407 kts 283°
2026-04-12 03:25 31.07054 -88.41133 36250 ft 407 kts 283°
2026-04-12 03:25 31.07925 -88.47618 36247 ft 407 kts 283°
2026-04-12 03:26 31.08789 -88.54114 36250 ft 407 kts 283°
2026-04-12 03:26 31.09649 -88.60614 36250 ft 407 kts 283°
2026-04-12 03:27 31.10514 -88.67143 36251 ft 407 kts 283°
2026-04-12 03:27 31.11372 -88.73645 36246 ft 407 kts 282°
2026-04-12 03:28 31.12225 -88.80165 36249 ft 407 kts 283°
2026-04-12 03:28 31.13078 -88.86679 36247 ft 406 kts 283°
2026-04-12 03:29 31.13928 -88.93214 36252 ft 406 kts 282°
2026-04-12 03:29 31.14766 -88.99693 36245 ft 407 kts 283°
2026-04-12 03:30 31.15609 -89.06201 36251 ft 405 kts 282°
2026-04-12 03:30 31.16443 -89.12703 36264 ft 406 kts 282°
2026-04-12 03:31 31.17278 -89.19210 36263 ft 407 kts 282°
2026-04-12 03:31 31.18103 -89.25687 36266 ft 407 kts 282°
2026-04-12 03:32 31.18931 -89.32197 36265 ft 406 kts 282°
2026-04-12 03:32 31.19756 -89.38726 36263 ft 406 kts 282°
2026-04-12 03:33 31.20575 -89.45231 36259 ft 406 kts 282°
2026-04-12 03:33 31.21390 -89.51720 36257 ft 405 kts 282°
2026-04-12 03:34 31.22199 -89.58203 36254 ft 405 kts 282°
2026-04-12 03:34 31.23009 -89.64723 36255 ft 405 kts 282°
2026-04-12 03:35 31.23813 -89.71213 36248 ft 404 kts 281°
2026-04-12 03:35 31.24610 -89.77681 36247 ft 405 kts 281°
2026-04-12 03:36 31.25408 -89.84177 36249 ft 405 kts 281°
2026-04-12 03:36 31.26207 -89.90707 36248 ft 405 kts 281°
2026-04-12 03:37 31.26997 -89.97203 36248 ft 406 kts 281°
2026-04-12 03:37 31.27787 -90.03704 36248 ft 406 kts 281°
2026-04-12 03:38 31.28569 -90.10207 36249 ft 405 kts 281°
2026-04-12 03:38 31.29370 -90.16715 36247 ft 405 kts 282°
2026-04-12 03:39 31.30553 -90.23097 36247 ft 403 kts 287°
2026-04-12 03:39 31.32289 -90.29324 36245 ft 401 kts 293°
2026-04-12 03:40 31.34528 -90.35236 36241 ft 400 kts 297°
2026-04-12 03:40 31.37037 -90.41069 36244 ft 400 kts 297°
2026-04-12 03:41 31.39537 -90.46864 36240 ft 400 kts 297°
2026-04-12 03:41 31.42028 -90.52647 36243 ft 401 kts 297°
2026-04-12 03:42 31.44533 -90.58475 36240 ft 401 kts 297°
2026-04-12 03:42 31.47043 -90.64320 36239 ft 401 kts 297°
2026-04-12 03:43 31.49548 -90.70155 36235 ft 401 kts 297°
2026-04-12 03:43 31.52038 -90.75972 36236 ft 401 kts 297°
2026-04-12 03:44 31.54531 -90.81805 36235 ft 401 kts 297°
2026-04-12 03:44 31.57028 -90.87655 36233 ft 401 kts 297°
2026-04-12 03:45 31.59523 -90.93509 36231 ft 401 kts 297°
2026-04-12 03:45 31.62004 -90.99339 36224 ft 401 kts 297°
2026-04-12 03:46 31.64498 -91.05210 36222 ft 402 kts 296°
2026-04-12 03:46 31.66972 -91.11045 36222 ft 402 kts 297°
2026-04-12 03:47 31.69455 -91.16908 36225 ft 402 kts 296°
2026-04-12 03:47 31.71946 -91.22800 36227 ft 402 kts 296°
2026-04-12 03:48 31.74430 -91.28684 36223 ft 402 kts 296°
2026-04-12 03:48 31.76914 -91.34576 36223 ft 403 kts 296°
2026-04-12 03:49 31.79380 -91.40441 36217 ft 403 kts 296°
2026-04-12 03:49 31.81854 -91.46334 36214 ft 403 kts 296°
2026-04-12 03:50 31.84320 -91.52212 36212 ft 402 kts 296°
2026-04-12 03:50 31.86785 -91.58104 36211 ft 402 kts 296°
2026-04-12 03:51 31.89257 -91.64016 36210 ft 402 kts 296°
2026-04-12 03:51 31.91737 -91.69961 36210 ft 404 kts 296°
2026-04-12 03:52 31.94194 -91.75857 36210 ft 403 kts 295°
2026-04-12 03:52 31.96650 -91.81768 36211 ft 403 kts 296°
2026-04-12 03:53 31.99120 -91.87715 35974 ft 404 kts 295°
2026-04-12 03:53 32.00344 -91.90665 35691 ft 402 kts 296°
2026-04-12 03:53 32.01572 -91.93632 35403 ft 400 kts 295°
2026-04-12 03:54 32.02774 -91.96532 35120 ft 398 kts 295°
2026-04-12 03:54 32.03989 -91.99468 34837 ft 399 kts 295°
2026-04-12 03:54 32.05204 -92.02406 34557 ft 400 kts 295°
2026-04-12 03:54 32.06417 -92.05342 34277 ft 402 kts 295°
2026-04-12 03:55 32.07652 -92.08338 33992 ft 404 kts 295°
2026-04-12 03:55 32.08866 -92.11283 33715 ft 403 kts 295°
2026-04-12 03:55 32.10088 -92.14254 33445 ft 403 kts 295°
2026-04-12 03:55 32.11314 -92.17235 33165 ft 401 kts 295°
2026-04-12 03:56 32.12525 -92.20177 32889 ft 401 kts 295°
2026-04-12 03:56 32.13727 -92.23103 32592 ft 400 kts 295°
2026-04-12 03:56 32.14942 -92.26063 32185 ft 398 kts 295°
2026-04-12 03:56 32.16146 -92.28996 31749 ft 395 kts 295°
2026-04-12 03:57 32.17319 -92.31859 31277 ft 393 kts 295°
2026-04-12 03:57 32.18508 -92.34761 30777 ft 389 kts 295°
2026-04-12 03:57 32.19677 -92.37617 30305 ft 385 kts 295°
2026-04-12 03:57 32.20842 -92.40463 29810 ft 382 kts 295°
2026-04-12 03:58 32.21977 -92.43246 29348 ft 379 kts 295°
2026-04-12 03:58 32.23123 -92.46051 28870 ft 376 kts 295°
2026-04-12 03:58 32.24245 -92.48801 28418 ft 372 kts 295°
2026-04-12 03:58 32.25354 -92.51520 27974 ft 369 kts 295°
2026-04-12 03:59 32.26470 -92.54260 27529 ft 365 kts 295°
2026-04-12 03:59 32.27561 -92.56938 27096 ft 362 kts 295°
2026-04-12 03:59 32.28636 -92.59583 26662 ft 359 kts 295°
2026-04-12 03:59 32.29714 -92.62238 26217 ft 356 kts 295°
2026-04-12 04:00 32.30774 -92.64848 25775 ft 354 kts 295°
2026-04-12 04:00 32.31836 -92.67467 25348 ft 351 kts 294°
2026-04-12 04:00 32.32545 -92.69216 25051 ft 350 kts 294°
2026-04-12 04:00 32.33588 -92.71787 24609 ft 349 kts 294°
2026-04-12 04:01 32.34623 -92.74345 24186 ft 347 kts 294°
2026-04-12 04:01 32.35662 -92.76910 23763 ft 345 kts 294°
2026-04-12 04:01 32.36690 -92.79452 23327 ft 344 kts 294°
2026-04-12 04:01 32.37722 -92.82008 22896 ft 343 kts 294°
2026-04-12 04:02 32.38749 -92.84551 22465 ft 342 kts 294°
2026-04-12 04:02 32.40780 -92.89589 21628 ft 341 kts 294°
2026-04-12 04:02 32.41796 -92.92112 21196 ft 340 kts 294°
2026-04-12 04:03 32.42812 -92.94633 20767 ft 340 kts 293°
2026-04-12 04:03 32.43841 -92.97189 20333 ft 339 kts 293°
2026-04-12 04:03 32.44859 -92.99720 19913 ft 339 kts 293°
2026-04-12 04:03 32.45867 -93.02229 19485 ft 338 kts 293°
2026-04-12 04:04 32.46888 -93.04771 19069 ft 337 kts 293°
2026-04-12 04:04 32.47892 -93.07274 18666 ft 336 kts 293°
2026-04-12 04:04 32.48899 -93.09785 18244 ft 335 kts 293°
2026-04-12 04:04 32.49894 -93.12269 17831 ft 335 kts 293°
2026-04-12 04:05 32.50882 -93.14738 17415 ft 334 kts 293°
2026-04-12 04:05 32.51877 -93.17233 17001 ft 334 kts 292°
2026-04-12 04:05 32.52866 -93.19705 16585 ft 334 kts 293°
2026-04-12 04:05 32.53859 -93.22192 16155 ft 333 kts 293°
2026-04-12 04:06 32.54847 -93.24670 15715 ft 332 kts 293°
2026-04-12 04:06 32.55832 -93.27139 15296 ft 331 kts 293°
2026-04-12 04:06 32.56809 -93.29586 14900 ft 330 kts 293°
2026-04-12 04:06 32.57777 -93.32020 14497 ft 329 kts 293°
2026-04-12 04:07 32.58751 -93.34467 14081 ft 327 kts 293°
2026-04-12 04:07 32.59721 -93.36907 13663 ft 326 kts 294°
2026-04-12 04:07 32.60682 -93.39325 13252 ft 324 kts 294°
2026-04-12 04:07 32.61636 -93.41724 12836 ft 323 kts 293°
2026-04-12 04:08 32.62585 -93.44113 12427 ft 321 kts 294°
2026-04-12 04:08 32.63529 -93.46492 12018 ft 319 kts 293°
2026-04-12 04:08 32.64481 -93.48891 11603 ft 318 kts 293°
2026-04-12 04:08 32.65407 -93.51232 11194 ft 316 kts 293°
2026-04-12 04:09 32.66337 -93.53582 10794 ft 314 kts 293°
2026-04-12 04:09 32.67271 -93.55941 10399 ft 313 kts 294°
2026-04-12 04:09 32.68180 -93.58239 10053 ft 307 kts 293°
2026-04-12 04:09 32.69072 -93.60495 9979 ft 294 kts 293°
2026-04-12 04:10 32.69928 -93.62661 9631 ft 291 kts 293°
2026-04-12 04:10 32.70791 -93.64854 9294 ft 290 kts 293°
2026-04-12 04:10 32.71637 -93.67001 8928 ft 289 kts 292°
2026-04-12 04:10 32.72489 -93.69160 8537 ft 288 kts 292°
2026-04-12 04:11 32.73333 -93.71303 8205 ft 286 kts 292°
2026-04-12 04:11 32.74173 -93.73441 7868 ft 284 kts 292°
2026-04-12 04:11 32.75006 -93.75563 7523 ft 283 kts 292°
2026-04-12 04:11 32.75835 -93.77668 7207 ft 282 kts 292°
2026-04-12 04:12 32.76512 -93.79836 6832 ft 278 kts 274°
2026-04-12 04:12 32.76273 -93.82021 6449 ft 268 kts 242°
2026-04-12 04:12 32.75234 -93.83787 6123 ft 260 kts 225°
2026-04-12 04:12 32.74026 -93.85366 5904 ft 255 kts 224°
2026-04-12 04:13 32.72846 -93.86929 5567 ft 254 kts 225°
2026-04-12 04:13 32.71670 -93.88509 5256 ft 253 kts 225°
2026-04-12 04:13 32.70531 -93.90057 5034 ft 249 kts 225°
2026-04-12 04:13 32.69398 -93.91605 4777 ft 245 kts 225°
2026-04-12 04:14 32.68296 -93.93116 4519 ft 241 kts 224°
2026-04-12 04:14 32.67203 -93.94614 4254 ft 238 kts 224°
2026-04-12 04:14 32.66137 -93.96076 4043 ft 234 kts 224°
2026-04-12 04:14 32.65062 -93.97520 3783 ft 228 kts 218°
2026-04-12 04:15 32.63738 -93.98408 3396 ft 219 kts 187°
2026-04-12 04:15 32.62254 -93.98344 3165 ft 209 kts 161°
2026-04-12 04:15 32.60981 -93.97594 2994 ft 201 kts 146°
2026-04-12 04:15 32.59897 -93.96607 2822 ft 195 kts 142°
2026-04-12 04:16 32.58855 -93.95604 2649 ft 189 kts 143°
2026-04-12 04:16 32.57840 -93.94652 2586 ft 177 kts 143°
2026-04-12 04:16 32.56897 -93.93793 2612 ft 163 kts 144°
2026-04-12 04:16 32.55980 -93.92970 2636 ft 164 kts 144°
2026-04-12 04:17 32.55066 -93.92155 2554 ft 164 kts 144°
2026-04-12 04:17 32.54162 -93.91348 2353 ft 158 kts 144°
2026-04-12 04:17 32.53303 -93.90581 2151 ft 146 kts 144°
2026-04-12 04:17 32.52494 -93.89857 1960 ft 144 kts 145°
2026-04-12 04:18 32.51713 -93.89159 1774 ft 134 kts 145°
2026-04-12 04:18 32.51007 -93.88525 1578 ft 119 kts 145°
2026-04-12 04:18 32.50364 -93.87942 1404 ft 113 kts 143°
2026-04-12 04:18 32.49746 -93.87378 1237 ft 113 kts 144°
2026-04-12 04:19 32.49104 -93.86818 1157 ft 113 kts 145°
2026-04-12 04:19 32.48482 -93.86276 1019 ft 111 kts 143°
2026-04-12 04:19 32.47861 -93.85693 910 ft 119 kts 142°
2026-04-12 04:19 32.47183 -93.85102 750 ft 120 kts 144°
2026-04-12 04:20 32.46500 -93.84497 589 ft 124 kts 142°
2026-04-12 04:20 32.45820 -93.83881 405 ft 126 kts 143°
2026-04-12 04:20 32.45119 -93.83253 256 ft 123 kts 142°
2026-04-12 04:20 32.44519 -93.82712 230 ft 85 kts 142°
2026-04-12 04:21 32.44185 -93.82410 224 ft 36 kts 142°
2026-04-12 04:21 32.43993 -93.82237 221 ft 31 kts 142°
2026-04-12 04:21 32.43868 -93.82125 221 ft 10 kts 144°
2026-04-12 04:21 32.43813 -93.82066 221 ft 11 kts 112°
2026-04-12 04:22 32.43850 -93.81995 219 ft 12 kts 28°
2026-04-12 04:22 32.43934 -93.81992 219 ft 12 kts 339°
2026-04-12 04:22 32.44010 -93.82050 220 ft 13 kts 322°
2026-04-12 04:22 32.44085 -93.82117 221 ft 13 kts 322°
2026-04-12 04:23 32.44163 -93.82187 221 ft 14 kts 322°
2026-04-12 04:23 32.44242 -93.82258 222 ft 14 kts 323°
2026-04-12 04:23 32.44323 -93.82332 222 ft 15 kts 322°
2026-04-12 04:23 32.44402 -93.82404 226 ft 13 kts 322°
2026-04-12 04:24 32.44476 -93.82469 228 ft 12 kts 323°
2026-04-12 04:24 32.44547 -93.82533 229 ft 13 kts 323°
2026-04-12 04:24 32.44618 -93.82597 231 ft 12 kts 322°
2026-04-12 04:24 32.44686 -93.82658 233 ft 11 kts 322°
2026-04-12 04:25 32.44748 -93.82714 235 ft 10 kts 322°
2026-04-12 04:25 32.44805 -93.82765 237 ft 9 kts 323°
2026-04-12 04:25 32.44856 -93.82811 239 ft 8 kts 323°
2026-04-12 04:25 32.44905 -93.82855 241 ft 8 kts 322°
2026-04-12 04:26 32.44951 -93.82896 243 ft 7 kts 322°
2026-04-12 04:26 32.44992 -93.82934 244 ft 7 kts 322°
2026-04-12 04:26 32.45040 -93.82976 246 ft 10 kts 323°
2026-04-12 04:26 32.45103 -93.83033 249 ft 11 kts 322°
2026-04-12 04:27 32.45162 -93.83086 251 ft 10 kts 322°
2026-04-12 04:27 32.45219 -93.83137 252 ft 8 kts 323°
2026-04-12 04:27 32.45271 -93.83139 253 ft 8 kts 32°
2026-04-12 04:27 32.45307 -93.83113 254 ft 4 kts 358°
2026-04-12 04:28 32.45338 -93.83129 254 ft 5 kts 328°
2026-04-12 04:28 32.45370 -93.83157 255 ft 6 kts 322°
2026-04-12 04:28 32.45404 -93.83184 256 ft 5 kts 336°
2026-04-12 04:28 32.45427 -93.83172 256 ft 4 kts 66°
2026-04-12 04:29 32.45417 -93.83136 256 ft 4 kts 119°
2026-04-12 04:29 32.45405 -93.83113 255 ft 0 kts 122°